Wind_Speed
29 28 29 32 33 34 39 41 45 43 42 46 47 44 41 42 51 52 44 43 49 52 45 46 42 45 50 53 55 58 64 66 60 55 59 57 57 56 55 36 44 54 51 51
27 28 29 29 30 32 33 38 41 42 41 46 45 41 38 38 40 35 33 36 41 41 32 37 35 38 46 49 49 53 58 59 63 61 61 61 60 62 62 56 33 45 48 49
27 29 28 30 31 33 31 36 41 45 46 42 41 36 29 21 17 14 21 23 24 20 17 19 25 27 32 38 44 48 51 54 58 61 66 65 65 64 63 49 61 43 49 50
27 29 30 31 32 32 32 35 39 40 45 44 27 35 10 10 7 19 12 11 8 17 16 19 22 20 22 24 31 35 40 49 55 60 68 69 69 67 64 55 54 57 65 54
28 30 31 30 32 33 33 34 36 37 41 44 24 27 8 14 18 17 17 22 18 16 17 20 21 21 22 24 27 26 29 31 39 56 66 69 72 69 68 62 60 60 58 46
31 29 30 32 36 34 36 37 38 37 39 38 26 28 17 27 24 20 17 19 11 19 19 20 21 22 24 25 28 28 29 31 29 44 60 66 71 72 70 64 64 64 55 53
32 27 27 34 34 35 35 39 43 39 36 36 27 32 19 19 23 17 11 11 24 8 19 16 17 18 25 29 31 33 30 33 31 35 44 56 66 73 73 69 66 64 63 57
37 32 33 34 36 37 35 38 41 44 41 36 22 25 17 23 24 16 13 10 16 22 28 22 20 18 22 25 30 32 31 28 32 35 34 41 54 69 74 74 72 67 64 55
37 36 33 34 35 35 37 37 35 41 40 36 30 21 19 18 31 26 12 20 23 26 24 25 22 20 25 28 29 31 32 31 29 29 36 33 38 58 69 74 76 69 67 63
41 44 36 36 34 33 36 40 43 41 39 37 31 29 28 25 24 23 21 31 22 24 26 26 25 25 24 29 33 33 33 31 30 31 31 37 36 38 59 70 77 69 69 60
42 44 41 39 37 36 39 42 37 38 33 36 34 34 23 25 31 21 19 19 16 17 17 24 28 28 24 26 28 27 32 34 31 32 30 33 37 36 41 61 73 74 63 57
44 44 42 39 35 42 40 42 32 30 31 33 37 37 31 30 35 29 24 33 20 30 27 28 36 36 25 27 30 31 27 33 32 32 29 29 31 35 37 41 64 71 66 58
47 48 47 43 42 37 46 41 41 38 47 45 51 43 37 33 35 39 37 33 29 28 35 38 39 37 26 28 29 33 26 24 31 29 26 31 31 33 40 39 45 63 65 66
47 48 48 49 45 46 46 37 29 37 41 40 40 38 29 28 32 37 35 36 37 35 37 39 45 49 35 29 28 27 27 25 26 27 27 34 31 34 38 39 40 50 53 64
48 49 48 48 41 39 33 24 24 29 28 33 25 26 23 21 24 28 31 37 40 41 45 46 43 46 42 34 30 32 26 26 28 26 32 34 31 34 36 38 37 44 46 62
48 49 48 47 26 30 22 20 23 17 19 21 22 26 26 32 21 31 36 35 38 42 43 39 40 39 42 42 29 30 28 27 25 26 33 34 35 32 33 28 33 39 42 44
49 46 40 35 27 24 17 21 20 22 21 27 28 34 21 24 30 34 40 43 44 40 36 38 37 35 35 27 25 29 27 27 25 28 28 31 32 30 30 25 31 35 39 48
44 35 35 36 37 21 26 24 26 27 23 25 31 32 35 34 35 39 42 45 41 38 36 34 34 33 32 30 33 28 29 30 26 27 29 29 23 24 25 21 16 24 35 44
37 27 29 31 38 36 27 29 33 29 24 29 31 31 31 37 41 36 40 42 39 38 34 36 34 34 35 33 33 33 30 29 30 27 30 27 22 20 20 18 14 33 34 39
22 32 34 31 30 28 25 27 29 34 37 38 32 30 35 35 33 24 34 36 38 42 41 39 36 35 33 34 34 36 31 36 32 29 30 26 15 13 11 16 18 29 27 28
28 29 27 27 29 27 25 30 31 38 37 31 32 35 30 28 34 30 33 37 39 36 38 39 36 32 31 32 31 31 36 36 33 31 31 25 20 14 15 14 22 24 27 25
26 26 23 22 23 24 27 32 37 34 32 34 29 27 27 29 31 31 23 18 26 27 23 24 35 33 33 31 29 33 33 36 31 28 29 25 19 17 14 11 20 28 36 30
23 25 25 24 22 27 29 33 35 37 37 30 25 26 29 32 21 16 18 24 26 28 30 28 21 33 27 29 32 34 32 33 29 30 28 24 19 16 14 15 23 34 27 28
27 26 22 26 20 28 30 35 39 36 28 25 27 29 31 20 19 17 25 29 26 27 24 22 19 31 30 31 32 32 38 33 32 30 24 19 15 14 22 18 22 19 25 28
25 21 19 18 25 33 32 37 26 23 24 27 26 26 21 13 8 15 25 25 26 11 10 13 25 32 35 31 33 35 34 33 34 29 21 15 15 21 27 33 29 36 31 31
16 19 24 29 33 34 30 24 19 20 24 23 24 23 15 8 13 16 17 16 9 9 10 23 32 38 33 36 38 39 37 36 31 25 19 19 22 26 38 43 41 38 27 41
Wind_Direction
317 323 324 334 337 336 334 331 330 330 320 308 306 302 297 282 268 265 271 271 272 272 272 257 254 250 249 247 248 247 244 243 237 239 245 242 244 244 245 257 252 238 249 250
316 317 323 327 326 326 327 325 326 330 321 312 311 300 303 298 284 277 270 278 266 261 258 253 249 248 243 242 243 243 244 241 239 238 239 243 242 244 240 244 230 238 242 250
319 314 313 315 320 320 325 317 327 327 323 321 307 302 313 315 292 289 267 292 278 253 236 243 249 244 244 244 240 240 242 241 235 234 236 237 240 243 248 248 249 239 246 245
314 310 310 314 313 311 320 317 321 324 319 328 311 307 337 295 238 272 242 261 259 247 250 255 258 254 248 236 235 235 238 239 234 230 232 233 236 239 245 242 248 239 253 234
315 311 308 307 309 314 316 313 317 321 326 324 316 293 2 294 280 279 273 288 220 234 265 263 264 265 258 237 237 238 240 243 237 230 232 229 231 234 240 240 239 248 260 256
317 314 313 313 314 311 312 310 316 318 320 323 305 289 285 303 267 267 280 286 238 218 245 266 268 267 259 251 247 244 245 239 233 233 233 232 228 230 233 238 242 246 248 248
318 314 310 308 311 308 309 307 313 316 316 318 307 291 309 298 295 224 239 264 276 257 244 261 259 265 269 264 260 259 248 243 237 235 243 236 230 227 229 232 236 244 247 246
317 316 312 312 313 311 311 307 310 308 311 314 306 306 278 288 284 247 180 191 252 259 264 264 277 275 271 275 274 267 257 254 247 244 243 245 234 230 228 229 231 238 243 243
313 310 310 309 309 307 304 306 300 299 301 302 308 289 265 275 286 283 215 239 235 240 245 264 265 273 273 273 271 271 266 261 257 254 247 244 243 231 230 230 229 230 238 243
314 312 315 310 311 311 297 302 303 298 293 295 296 296 282 269 280 286 263 233 233 256 256 245 246 274 286 281 270 266 265 263 253 252 245 240 246 242 229 229 229 230 233 241
309 309 315 312 312 302 297 298 295 293 280 286 285 283 278 279 260 300 250 237 218 235 255 245 258 262 279 286 281 278 265 256 255 255 257 249 242 252 242 229 228 229 231 230
306 306 308 311 313 305 307 305 298 277 273 274 285 269 290 273 275 272 287 267 258 239 256 248 279 290 292 288 279 276 268 258 249 247 253 250 243 249 254 244 228 228 230 222
310 310 312 314 313 308 300 292 287 271 270 275 276 279 284 279 269 274 279 270 265 263 272 274 272 279 276 267 276 275 264 257 253 241 242 238 234 242 250 248 234 230 231 230
305 308 309 311 310 306 304 306 291 277 274 277 272 280 278 272 263 264 272 272 272 274 272 264 262 270 265 273 279 272 268 259 255 240 232 234 229 240 248 249 235 229 230 229
304 308 310 310 310 303 312 319 300 293 285 273 283 274 277 274 268 268 272 275 279 280 277 275 268 265 263 270 274 269 262 262 255 241 231 230 229 237 246 247 237 224 224 228
306 310 309 312 299 304 318 312 306 299 306 285 270 284 276 273 270 269 271 269 269 273 277 271 270 256 255 256 254 257 258 251 249 235 231 227 232 241 252 250 242 221 213 219
310 309 309 322 294 290 319 309 307 305 298 297 287 285 289 277 280 282 282 282 281 276 273 274 265 255 247 239 238 247 254 238 235 230 231 228 231 248 258 266 221 217 213 222
313 310 296 298 302 265 318 303 311 306 304 290 298 299 295 290 281 282 285 282 279 275 268 266 261 253 243 230 231 241 247 237 229 223 223 231 238 249 254 254 225 212 209 220
309 298 280 286 293 299 304 295 307 299 296 294 294 291 284 285 283 284 278 276 275 271 264 258 257 247 242 240 238 235 239 231 220 217 217 234 232 248 263 263 239 211 209 217
298 294 298 301 301 302 306 295 300 301 302 301 301 299 293 286 281 279 276 277 274 273 269 261 257 248 242 242 233 230 230 227 212 207 209 226 211 246 264 236 238 214 199 208
302 298 303 303 306 308 308 303 301 306 303 301 301 298 291 289 288 286 285 281 278 271 263 257 249 240 235 235 231 229 222 219 206 201 202 215 221 233 243 217 229 207 183 203
317 308 302 307 302 306 299 304 305 301 303 310 304 298 295 297 296 302 292 275 283 281 272 263 238 231 228 227 221 215 210 204 189 191 193 204 213 223 230 209 222 193 168 183
318 308 305 300 306 298 307 306 305 304 311 308 304 300 304 307 304 296 297 313 295 291 272 260 249 214 217 212 201 197 198 179 177 182 189 195 203 213 181 176 201 206 188 173
307 310 308 304 308 311 312 307 307 307 312 307 305 307 311 304 297 292 312 307 308 296 279 235 239 187 194 184 180 180 177 172 172 180 189 189 192 184 154 162 188 149 168 145
315 319 315 314 318 310 310 308 310 306 301 297 303 322 318 314 305 330 323 324 313 293 237 186 180 175 170 168 166 164 169 163 168 170 169 169 181 169 154 159 161 138 132 140
327 330 327 322 319 322 321 314 309 302 295 303 325 326 312 271 300 335 346 339 343 147 150 149 155 154 150 149 153 158 159 161 161 165 170 176 175 175 159 143 145 139 136 124
Height
5802 5799 5794 5788 5784 5781 5777 5773 5768 5765 5758 5746 5741 5736 5734 5730 5725 5725 5726 5725 5726 5726 5727 5734 5739 5746 5751 5755 5760 5767 5772 5780 5794 5797 5799 5805 5811 5815 5819 5802 5817 5830 5838 5840
5798 5792 5789 5785 5781 5777 5773 5766 5762 5758 5749 5738 5730 5723 5721 5716 5713 5713 5713 5715 5713 5713 5714 5718 5723 5732 5736 5741 5746 5752 5756 5766 5776 5785 5788 5792 5797 5801 5804 5824 5818 5824 5824 5825
5791 5787 5783 5779 5775 5771 5767 5758 5752 5743 5736 5734 5718 5714 5714 5711 5708 5707 5710 5711 5710 5708 5706 5710 5715 5723 5726 5730 5735 5739 5743 5750 5759 5768 5772 5779 5785 5789 5793 5810 5796 5798 5815 5816
5786 5781 5777 5772 5768 5763 5760 5753 5744 5737 5728 5721 5716 5703 5708 5703 5703 5701 5703 5705 5703 5704 5703 5706 5710 5716 5719 5723 5725 5729 5733 5738 5744 5750 5755 5764 5773 5781 5786 5798 5797 5808 5772 5799
5780 5773 5769 5765 5760 5754 5751 5745 5739 5732 5723 5714 5712 5705 5707 5705 5700 5697 5696 5695 5698 5700 5702 5704 5706 5710 5714 5717 5719 5723 5726 5729 5734 5738 5739 5748 5757 5770 5777 5785 5792 5788 5791 5787
5770 5766 5761 5755 5751 5746 5740 5735 5731 5725 5717 5712 5705 5700 5704 5700 5697 5696 5696 5693 5691 5694 5699 5702 5702 5704 5706 5711 5713 5715 5719 5722 5725 5727 5728 5734 5745 5755 5764 5771 5775 5776 5777 5781
5762 5760 5755 5749 5745 5739 5733 5726 5719 5716 5711 5706 5701 5694 5697 5693 5693 5690 5692 5690 5688 5690 5694 5695 5697 5699 5699 5704 5708 5708 5710 5714 5718 5719 5720 5725 5735 5743 5751 5757 5761 5763 5770 5780
5752 5752 5746 5742 5737 5731 5726 5719 5712 5703 5700 5699 5697 5692 5688 5685 5686 5681 5681 5676 5686 5688 5687 5689 5692 5694 5696 5698 5699 5701 5704 5709 5711 5713 5715 5717 5724 5731 5739 5745 5749 5755 5761 5774
5744 5742 5741 5734 5729 5723 5719 5713 5707 5698 5695 5689 5689 5689 5684 5683 5676 5676 5675 5675 5677 5678 5680 5683 5685 5687 5689 5690 5691 5693 5696 5699 5702 5704 5707 5711 5712 5717 5726 5732 5738 5745 5750 5756
5736 5728 5732 5725 5721 5716 5706 5703 5697 5691 5683 5680 5679 5681 5678 5678 5675 5673 5671 5670 5671 5673 5674 5673 5676 5679 5681 5682 5683 5685 5687 5690 5691 5694 5696 5701 5703 5705 5710 5716 5723 5734 5740 5751
5727 5721 5720 5715 5711 5704 5699 5692 5686 5681 5677 5672 5669 5670 5671 5671 5667 5667 5666 5664 5664 5667 5668 5668 5669 5672 5675 5675 5676 5676 5679 5681 5683 5686 5690 5694 5697 5696 5698 5702 5712 5722 5730 5742
5716 5710 5708 5706 5702 5692 5685 5680 5676 5671 5669 5665 5662 5661 5663 5661 5658 5658 5658 5659 5662 5662 5663 5663 5664 5665 5668 5667 5667 5667 5671 5671 5675 5679 5683 5687 5690 5690 5689 5694 5702 5709 5720 5734
5704 5698 5693 5694 5692 5684 5677 5671 5666 5664 5658 5655 5648 5650 5656 5655 5652 5649 5649 5649 5655 5656 5655 5656 5655 5657 5661 5660 5660 5659 5661 5664 5667 5672 5675 5677 5679 5681 5679 5682 5691 5699 5708 5722
5695 5689 5684 5678 5676 5669 5664 5661 5655 5648 5645 5644 5642 5640 5644 5642 5642 5642 5641 5642 5644 5646 5646 5648 5647 5645 5649 5651 5652 5654 5653 5656 5660 5663 5665 5666 5672 5671 5673 5675 5680 5687 5699 5714
5685 5679 5674 5667 5662 5655 5651 5647 5643 5638 5637 5632 5634 5632 5632 5632 5632 5632 5633 5632 5630 5630 5631 5632 5634 5633 5638 5642 5645 5647 5648 5649 5652 5657 5657 5662 5665 5665 5665 5669 5673 5678 5691 5705
5674 5668 5661 5656 5650 5644 5643 5638 5633 5632 5629 5627 5623 5623 5622 5622 5624 5624 5623 5624 5624 5621 5619 5619 5618 5621 5625 5632 5636 5638 5639 5643 5646 5649 5650 5655 5659 5661 5664 5666 5669 5675 5686 5697
5664 5655 5649 5650 5641 5637 5636 5632 5628 5627 5626 5620 5617 5614 5616 5615 5614 5614 5613 5611 5608 5607 5607 5605 5606 5609 5615 5623 5627 5629 5631 5635 5638 5641 5645 5648 5653 5659 5660 5661 5663 5669 5679 5691
5654 5647 5640 5633 5633 5630 5627 5624 5622 5619 5618 5615 5613 5609 5606 5605 5606 5604 5601 5595 5595 5594 5595 5594 5595 5599 5604 5611 5615 5621 5624 5627 5632 5635 5640 5643 5649 5653 5655 5658 5659 5666 5675 5685
5643 5638 5634 5629 5624 5624 5624 5618 5615 5611 5612 5606 5605 5603 5601 5597 5592 5595 5585 5582 5582 5581 5582 5582 5585 5589 5593 5600 5606 5611 5615 5619 5624 5631 5635 5641 5646 5648 5651 5656 5659 5665 5672 5683
5637 5631 5627 5623 5618 5615 5614 5610 5607 5602 5600 5597 5593 5592 5588 5583 5579 5583 5574 5571 5569 5567 5568 5570 5573 5577 5583 5588 5594 5600 5605 5611 5616 5626 5632 5638 5643 5648 5650 5654 5657 5664 5674 5684
5628 5623 5619 5615 5612 5609 5607 5603 5601 5596 5593 5588 5585 5581 5576 5573 5568 5567 5563 5558 5553 5552 5552 5553 5559 5566 5572 5576 5583 5590 5596 5603 5612 5621 5630 5638 5642 5644 5648 5653 5657 5667 5677 5686
5620 5617 5614 5611 5607 5606 5601 5599 5594 5588 5583 5580 5574 5570 5567 5564 5560 5553 5549 5547 5545 5542 5540 5540 5542 5552 5559 5566 5574 5581 5589 5598 5610 5618 5628 5636 5642 5645 5650 5653 5659 5668 5680 5687
5616 5612 5608 5606 5603 5599 5597 5590 5585 5578 5574 5570 5566 5563 5559 5555 5551 5547 5544 5539 5534 5530 5528 5530 5532 5539 5550 5557 5566 5577 5588 5599 5608 5617 5626 5634 5640 5647 5651 5655 5660 5666 5676 5686
5611 5606 5603 5599 5599 5593 5590 5585 5578 5572 5567 5564 5560 5556 5552 5547 5544 5542 5537 5529 5523 5519 5516 5518 5524 5535 5544 5553 5566 5576 5589 5598 5607 5617 5625 5633 5639 5646 5651 5657 5664 5672 5681 5689
5604 5601 5598 5596 5590 5588 5585 5575 5569 5566 5562 5558 5555 5551 5545 5542 5540 5537 5531 5523 5516 5510 5511 5514 5521 5532 5544 5556 5568 5580 5590 5599 5609 5617 5626 5632 5639 5644 5651 5658 5666 5675 5682 5689
5602 5597 5592 5588 5583 5577 5572 5567 5564 5561 5557 5553 5550 5545 5541 5539 5538 5535 5529 5523 5514 5513 5514 5518 5526 5539 5550 5561 5572 5583 5592 5601 5611 5619 5626 5632 5637 5641 5651 5661 5673 5680 5686 5695